This site uses a module created by best online poker sites.

BSB police report for December 6, 2018

Print
"12/04/2018","00:09","218CR0031065","ATL","ATL","225 N ALASKA","",""
"12/04/2018","00:18","218CR0031066","ALL OTHER","ALL OTHER","2100 CORNELL QUALITY INN","",""
"12/04/2018","00:37","218CR0031067","UNWANTED PERSON","UNWANTED PERSON","************","",""
"12/04/2018","01:08","218CR0031068","SUSPICIOUS ACTIVITY","CRIMINAL CONTEMPT","1900 BLK FLORIDA","ARREST(s) MADE",""
"12/04/2018","01:37","218CR0031069","ALL OTHER","ALL OTHER","501 W GRANITE MUELLER APTS","",""
"12/04/2018","02:20","218CR0031070","SUSPICIOUS ACTIVITY","SUSPICIOUS ACTIVITY","200 BLK W PARK N ALLEY","",""
"12/04/2018","05:05","218CR0031071","WELFARE CHECK","WELFARE CHECK","730 NEVADA","",""
"12/04/2018","05:54","218CR0031072","MEDICAL - EMERGENCY","MEDICAL - EMERGENCY","721 HOBSON #4","",""
"12/04/2018","06:34","218CR0031073","ALARM - BURGLARY","ALARM - BURGLARY","************","",""
"12/04/2018","06:47","218CR0031074","DISTURBANCE","DISTURBANCE","400 BLK S CLARK","",""
"12/04/2018","06:55","218CR0031075","ACCIDENT-MHP","ACCIDENT-MHP","I15 NB 146","",""
"12/04/2018","07:45","218CR0031076","LED BUSINESS","LED BUSINESS","400 S CLARK ST","",""
"12/04/2018","07:56","218CR0031077","WELFARE CHECK","WELFARE CHECK","400 S CLARK ST","",""
"12/04/2018","08:10","218CR0031078","SUSPICIOUS ACTIVITY","SUSPICIOUS ACTIVITY","CASEY ST AND NOYES ST","",""
"12/04/2018","09:04","218CR0031079","MEDICAL - EMERGENCY","MEDICAL - EMERGENCY","4655 HARRISON AVE","",""
"12/04/2018","09:11","218CR0031080","SUSPICIOUS ACTIVITY","SUSPICIOUS ACTIVITY","CLARK ST AND QUARTZ ST","",""
"12/04/2018","09:27","218CR0031081","CIVIL PAPER SERVICE","CIVIL PAPER SERVICE","2820 SILVER BOW","",""
"12/04/2018","09:42","218CR0031082","WELFARE CHECK","WELFARE CHECK","2006 HANCOCK","",""
"12/04/2018","09:57","218CR0031083","ALARM - FIRE","ALARM - FIRE","300 MOUNT HIGHLAND DR","",""
"12/04/2018","10:24","218CR0031084","CIVIL PAPER SERVICE","CIVIL PAPER SERVICE","1614 N MAIN ST","",""
"12/04/2018","10:36","218CR0031085","THEFT","THEFT, ALL OTHERS","712 SAMPSON/AWARE GROUP HOME","",""
"12/04/2018","10:56","218CR0031087","THEFT","THEFT, ALL OTHERS","2941 BUSCH AVE","",""
"12/04/2018","10:56","218CR0031086","LED BUSINESS","LED BUSINESS","SHOOTING RANGE","",""
"12/04/2018","10:58","218CR0031088","JUVENILE MISC","JUVENILE MISC","************","",""
"12/04/2018","11:23","218CR0031089","SUSPICIOUS ACTIVITY","SUSPICIOUS ACTIVITY","405 W GRANITE","",""
"12/04/2018","11:28","218CR0031090","SUSPICIOUS ACTIVITY","SUSPICIOUS ACTIVITY","20 W GALENA","",""
"12/04/2018","11:43","218CR0031091","BUSINESS CHECK","BUSINESS CHECK","58 W PARK ST PARKING GARAGE","",""
"12/04/2018","11:50","218CR0031092","SUSPICIOUS ACTIVITY","SUSPICIOUS ACTIVITY","3001 HARRISON","",""
"12/04/2018","12:03","218CR0031093","BURGLARY","BURGLARY, RESIDENCE","1057 W GOLD ST","",""
"12/04/2018","12:23","218CR0031095","CIVIL PAPER SERVICE","CIVIL PAPER SERVICE","1900 LOWELL","",""
"12/04/2018","13:17","218CR0031096","ATL","ATL","400 S CLARK ST","",""
"12/04/2018","13:18","218CR0031097","FIRE- GAS ODOR","FIRE- GAS ODOR","742 S MAIN","",""
"12/04/2018","13:20","218CR0031098","MEDICAL - EMERGENCY","MEDICAL - EMERGENCY","1019 W SILVER ST","",""
"12/04/2018","13:38","218CR0031099","JUVENILE MISC","JUVENILE MISC","************","",""
"12/04/2018","14:24","218CR0031101","THEFT","THEFT","1301 HARRISON AVE","",""
"12/04/2018","14:27","218CR0031102","VANDALISM/CRIMINAL MISCHIEF","VANDALISM/CRIMINAL MISCHIEF","1003 S MONTANA ST","",""
"12/04/2018","14:30","218CR0031103","ACCIDENT","FAIL TO YIELD THRU TRAFFIC","COBBAN AND LAFAYETTE","",""
"12/04/2018","14:39","218CR0031104","BUSINESS CHECK","BUSINESS CHECK","58 W PARK","",""
"12/04/2018","15:08","218CR0031105","CIVIL PAPER SERVICE","CIVIL PAPER SERVICE","1504 ELM ST","",""
"12/04/2018","15:29","218CR0031106","SUSPICIOUS ACTIVITY","SUSPICIOUS ACTIVITY","800 BLK MAIN ST","",""
"12/04/2018","15:30","218CR0031107","VANDALISM/CRIMINAL MISCHIEF","CRIMINAL MISCHIEF","821 W MERCURY ST","",""
"12/04/2018","15:39","218CR0031108","T/S","T/S","GRANITE AND HAMILTON","",""
"12/04/2018","15:46","218CR0031109","HARASSMENT","HARASSMENT","400 S CLARK ST","",""
"12/04/2018","15:46","218CR0031110","LED BUSINESS","THEFT, ALL OTHERS","155 W QUARTZ","",""
"12/04/2018","15:48","218CR0031111","T/S","T/S","1515 HARRISON AVE","",""
"12/04/2018","15:49","218CR0031112","SUSPICIOUS ACTIVITY","SUSPICIOUS ACTIVITY","700 BLK LEWISHON","",""
"12/04/2018","16:01","218CR0031113","WELFARE CHECK","WELFARE CHECK","125 W GRANITE","",""
"12/04/2018","16:10","218CR0031114","T/S","OPERATING WITHOUT CURRENT REGI","MASSACHUSETTS AND YALE","",""
"12/04/2018","16:13","218CR0031115","ACCIDENT","AGGRAVATED DUI","807 S MAIN","ARREST(s) MADE",""
"12/04/2018","16:21","218CR0031116","FRAUD","FRAUD","3 BEARS ALASKA 3 BEARS DRIVE","",""
"12/04/2018","16:33","218CR0031117","WELFARE CHECK","WELFARE CHECK","12 ONEILL APT B","",""
"12/04/2018","17:00","218CR0031118","T/S","DRIVE WHILE SUSP. OR REVOKED","MAIN ST AND GRANITE ST","",""
"12/04/2018","17:12","218CR0031119","DISTURBANCE","DISTURBANCE","100 W PARK ST","",""
"12/04/2018","17:13","218CR0031120","ASSIST OTHER AGENCY","ASSIST OTHER AGENCY","ELM AND GARFIELD","",""
"12/04/2018","17:17","218CR0031121","THEFT","THEFT, ALL OTHERS","155 W QUARTZ BSB COUNTY JAILK","",""
"12/04/2018","17:40","218CR0031122","T/S","T/S @ MERCURY AND MONTANA","MERCURY AND MONTANA","",""
"12/04/2018","17:50","218CR0031123","SUSPICIOUS ACTIVITY","SUSPICIOUS ACTIVITY","GALENA AND MAIN","",""
"12/04/2018","18:25","218CR0031124","DISTURBANCE","PFMA - MINOR INJ/PHYSICAL CONT","720 HOBSON","",""
"12/04/2018","18:55","218CR0031125","TRAFFIC HAZARD","TRAFFIC HAZARD","27 E GALENA","",""
"12/04/2018","19:20","218CR0031126","ALARM - MEDICAL","ALARM - MEDICAL","************","",""
"12/04/2018","20:10","218CR0031127","DISTURBANCE","DISTURBANCE","1316 KAW AVE","",""
"12/04/2018","20:23","218CR0031128","MEDICAL - EMERGENCY","MEDICAL - EMERGENCY","155 W QUARTZ","",""
"12/04/2018","21:29","218CR0031129","HIT AND RUN","HIT AND RUN, UNATTENDED VEHICL","1115 MARYLAND","",""
"12/04/2018","21:34","218CR0031130","ALARM - BURGLARY","ALARM - BURGLARY","************","",""
"12/04/2018","22:03","218CR0031131","MEDICAL - ASSIST","MEDICAL - ASSIST","************","",""
"12/04/2018","22:57","218CR0031132","PROWLER","PROWLER","106 COTTAGE LOOP","",""
"12/04/2018","23:09","218CR0031133","MEDICAL - EMERGENCY","MEDICAL - EMERGENCY","FARRELL AND ADAMS","",""
"12/04/2018","23:14","218CR0031134","MEDICAL - EMERGENCY","MEDICAL - EMERGENCY","132 W BROADWAY","",""
"12/04/2018","23:20","218CR0031135","SUSPICIOUS ACTIVITY","SUSPICIOUS ACTIVITY","2201 SILVERBOW BLVD","",""
"12/05/2018","00:11","218CR0031136","MEDICAL - EMERGENCY","MEDICAL - EMERGENCY","1809 A STREET","",""
"12/05/2018","00:21","218CR0031137","ALARM - BURGLARY","ALARM - BURGLARY","************","",""
"12/05/2018","00:27","218CR0031138","BUSINESS CHECK","BUSINESS CHECK","2000 DEWEY BLVD DOTTYS CASINO","",""
"12/05/2018","00:28","218CR0031139","MEDICAL - EMERGENCY","MEDICAL - EMERGENCY","2850 KOSSUTH","",""
"12/05/2018","01:29","218CR0031140","THEFT","THEFT, ALL OTHERS","678 S DAKOTA","",""
"12/05/2018","02:25","218CR0031141","BUSINESS CHECK","BUSINESS CHECK","531 S MONTANA TOWN PUMP","",""
"12/05/2018","02:31","218CR0031142","SUSPICIOUS ACTIVITY","SUSPICIOUS ACTIVITY","1324 HARRISON AVE BUS DEPOT","",""
"12/05/2018","03:26","218CR0031143","DISTURBANCE","DISTURBANCE","1324 HARRISON AVE BUS DEPOT","",""
"12/05/2018","04:36","218CR0031144","ASSAULT","PFMA - MINOR INJ/PHYSICAL CONT","507 S MAIN","",""
"12/05/2018","04:44","218CR0031145","ALARM - BURGLARY","ALARM - BURGLARY","************","",""
"12/05/2018","05:01","218CR0031146","CITIZEN AID","CITIZEN AID","1827 OREGON","",""
"12/05/2018","05:08","218CR0031147","MEDICAL - EMERGENCY","MEDICAL - EMERGENCY","1904 SILVERBOW HOMES","",""
"12/05/2018","07:44","218CR0031148","BUSINESS CHECK","BUSINESS CHECK","58 W PARK ST","",""
"12/05/2018","08:01","218CR0031149","T/S","T/S @ ","","",""
"12/05/2018","08:02","218CR0031150","FIRE - OTHER","FIRE - OTHER","1000 BLK GAYLORD","",""
"12/05/2018","08:02","218CR0031151","T/S","DRIVE WHILE SUSP. OR REVOKED","ALABAMA AND DIAMOND","",""
"12/05/2018","08:27","218CR0031152","CIVIL PAPER SERVICE","CIVIL PAPER SERVICE","518 N WYOMING","",""
"12/05/2018","08:31","218CR0031153","SUSPICIOUS ACTIVITY","SUSPICIOUS ACTIVITY","58 W PARK","",""
"12/05/2018","08:36","218CR0031154","JUVENILE MISC","TRUANCY","401 S WYOMING BUTTE HIGH SCHOO","ARREST(s) MADE",""
"12/05/2018","08:42","218CR0031155","JUVENILE MISC","JUVENILE MISC","************","",""
"12/05/2018","08:56","218CR0031156","HARASSMENT","HARASSMENT","742 S MAIN ST","",""
"12/05/2018","09:11","218CR0031157","ALARM - FIRE","ALARM - FIRE","4053 WYNNE","",""
"12/05/2018","09:27","218CR0031158","CIVIL PAPER SERVICE","CIVIL PAPER SERVICE","654 S IDAHO","",""
"12/05/2018","09:42","218CR0031159","ABANDONED VEHICLE- PRIVATE PRO","ABANDONED VEHICLE- PRIVATE PRO","202 N MAIN","",""
"12/05/2018","09:49","218CR0031160","LED BUSINESS","LED BUSINESS","155 W GRANITE","",""
"12/05/2018","09:54","218CR0031161","CITIZEN AID","CITIZEN AID","FRONT AND MONTANA","",""
"12/05/2018","10:03","218CR0031162","FRAUD","ISSUING A BAD CHECK","3703 HARRISON AVE","",""
"12/05/2018","10:15","218CR0031163","DISTURBANCE","DISTURBANCE","1050 S MONTANA","",""
"12/05/2018","10:26","218CR0031164","ACCIDENT","ACCIDENT","901 E FRONT ST","",""
"12/05/2018","10:53","218CR0031165","TRAFFIC HAZARD","TRAFFIC HAZARD","CENTENNIAL AND MONTANA","",""
"12/05/2018","10:55","218CR0031166","ALARM - FIRE","ALARM - FIRE","300 MOUNT HIGHLAND DR","",""
"12/05/2018","11:13","218CR0031167","ASSIST OTHER AGENCY","ASSIST OTHER AGENCY","61 W CENTER","",""
"12/05/2018","11:16","218CR0031168","BUSINESS CHECK","BUSINESS CHECK","58 W PARK ST","",""
"12/05/2018","11:18","218CR0031169","ALARM - BURGLARY","ALARM - BURGLARY","************","",""
"12/05/2018","11:39","218CR0031170","T/S","T/S @ AMHERST AND THOMAS","AMHERST AND THOMAS","",""
"12/05/2018","11:59","218CR0031171","WELFARE CHECK","WELFARE CHECK","1725 STUART AVE","",""
"12/05/2018","12:13","218CR0031172","MEDICAL - EMERGENCY","MEDICAL - EMERGENCY","5270 SADDLE ROCK","",""
"12/05/2018","12:14","218CR0031173","DISTURBANCE","DISTURBANCE","341 INDIAN PAINT BRUSH","",""
"12/05/2018","12:18","218CR0031175","FOUND PROPERTY","FOUND PROPERTY","************","",""
"12/05/2018","12:25","218CR0031176","T/S","T/S @ PARK AND WASHINGTON","PARK AND WASHINGTON","",""
"12/05/2018","12:33","218CR0031177","TRAFFIC HAZARD","TRAFFIC HAZARD","736 N MONTANA","",""
"12/05/2018","12:46","218CR0031178","DETENTION BUSINESS","DETENTION BUSINESS","************","",""
"12/05/2018","13:08","218CR0031179","CIVIL PAPER SERVICE","CIVIL PAPER SERVICE","62 W BROADWAY","",""
"12/05/2018","13:13","218CR0031180","WANTED PERSON","WANTED PERSON","************","",""
"12/05/2018","13:23","218CR0031181","CIVIL PAPER SERVICE","CIVIL PAPER SERVICE","263 W BOVINE","",""
"12/05/2018","13:28","218CR0031182","INFORMATION ONLY","INFORMATION ONLY","1455 SAGE","",""
"12/05/2018","13:28","218CR0031183","T/S","T/S","1000 BLK EXCELSIOR","",""
"12/05/2018","13:29","218CR0031184","MEDICAL - EMERGENCY","MEDICAL - EMERGENCY","1455 SAGE","",""
"12/05/2018","13:47","218CR0031185","MEDICAL - EMERGENCY","MEDICAL - EMERGENCY","3037 BURLINGTON","",""
"12/05/2018","13:58","218CR0031186","CIVIL PAPER SERVICE","CIVIL PAPER SERVICE","675 SLALOM LANE","",""
"12/05/2018","14:31","218CR0031187","MEDICAL - EMERGENCY","MEDICAL - EMERGENCY","2825 FARRAGUT #B104","",""
"12/05/2018","14:35","218CR0031188","MEDICAL - EMERGENCY","MEDICAL - EMERGENCY","2105 SILVER BOW BLVD","",""
"12/05/2018","14:56","218CR0031189","DRUGS","DRUGS","************","",""
"12/05/2018","15:02","218CR0031190","FOUND PROPERTY","FOUND PROPERTY","************","",""
"12/05/2018","15:06","218CR0031191","T/S","T/S @ PLATINUM AND EXCELSIOR","PLATINUM AND EXCELSIOR","",""
"12/05/2018","15:11","218CR0031192","CIVIL STANDBY","CIVIL STANDBY","1901 GAYLORD","",""
"12/05/2018","15:15","218CR0031193","T/S","CRIMINAL CONTEMPT","ELM AND TEXAS","ARREST(s) MADE",""
"12/05/2018","15:17","218CR0031194","MAN WITH A GUN","MAN WITH A GUN","************","",""
"12/05/2018","15:25","218CR0031195","T/S","T/S @ COBBAN ST AND REYNOLDS ST","COBBAN ST AND REYNOLDS ST","",""
"12/05/2018","15:47","218CR0031196","T/S","T/S @ GOLD ST AND MAIN ST","GOLD ST AND MAIN ST","",""
"12/05/2018","15:50","218CR0031197","RESTRAINING ORDER VIOLATION","VIOLATION OF PROTECTION ORDER","2100 MEADOWLARK LANE","",""
"12/05/2018","15:57","218CR0031199","PARKING COMPLAINT","PARKING COMPLAINT","HERMAN GULCH AND BASIN CREEK","",""
"12/05/2018","15:58","218CR0031200","ATL","ATL","2101 HARRISON/DOMINOS PIZZA","",""
"12/05/2018","16:20","218CR0031201","WELFARE CHECK","WELFARE CHECK","3401 HARRISON","",""
"12/05/2018","16:32","218CR0031202","ACCIDENT","ACCIDENT","237 E MERCURY","",""
"12/05/2018","16:44","218CR0031203","DISTURBANCE","DISTURBANCE","155 W GRANITE ST","",""
"12/05/2018","16:49","218CR0031204","ACCIDENT","ACCIDENT","FRONT AND OREGON","",""
"12/05/2018","17:11","218CR0031205","T/S","T/S @ ALUMINUM ST AND MONTANA ST","ALUMINUM ST AND MONTANA ST","",""
"12/05/2018","17:29","218CR0031206","T/S","CRIMINAL CONTEMPT","FIRST AND MARYLAND","ARREST(s) MADE",""
"12/05/2018","18:08","218CR0031207","THEFT","THEFT, SHOPLIFT","3901 HARRISON","ARREST(s) MADE",""
"12/05/2018","18:16","218CR0031208","SUSPICIOUS ACTIVITY","SUSPICIOUS ACTIVITY","1641 GRAND AVE","",""
"12/05/2018","18:19","218CR0031209","ASSIST OTHER AGENCY","ASSIST OTHER AGENCY","1120 W DIAMOND ST","",""
"12/05/2018","18:34","218CR0031210","MEDICAL - EMERGENCY","MEDICAL - EMERGENCY","201 HOBSON #16","",""
"12/05/2018","18:54","218CR0031211","THEFT","THEFT, SHOPLIFT","1619 GRAND AVE","",""
"12/05/2018","19:07","218CR0031212","MEDICAL - EMERGENCY","MEDICAL - EMERGENCY","3601 GAYLORD ST","",""
"12/05/2018","19:15","218CR0031213","ALARM - FIRE","ALARM - FIRE","50 W BROADWAY ST","",""
"12/05/2018","19:19","218CR0031214","FIRE - OTHER","FIRE - OTHER","3400 HILL APT 405","",""
"12/05/2018","19:30","218CR0031215","WELFARE CHECK","WELFARE CHECK","2711 HARRISON AVE","",""
"12/05/2018","19:52","218CR0031216","FIRE - OTHER","FIRE - OTHER","3400 HILL APT 405","",""
"12/05/2018","20:22","218CR0031217","MEDICAL - ASSIST","MEDICAL - ASSIST","************","",""
"12/05/2018","20:41","218CR0031218","MEDICAL - EMERGENCY","MEDICAL - EMERGENCY","201 HOBSON #16","",""
"12/05/2018","21:25","218CR0031219","PARKING COMPLAINT","PARKING COMPLAINT","215 S MAIN","",""
"12/05/2018","21:56","218CR0031220","SUSPICIOUS ACTIVITY","SUSPICIOUS ACTIVITY","3910 HARRISON AVE","",""
"12/05/2018","22:11","218CR0031221","ALARM - BURGLARY","ALARM - BURGLARY","************","",""
"12/05/2018","22:22","218CR0031222","OPEN BUILDING","OPEN BUILDING","1810 MEADOWLARK FISH // GAME O","",""
"12/05/2018","22:24","218CR0031223","MEDICAL - EMERGENCY","MEDICAL - EMERGENCY","3701 ELIZABETH WARREN","",""
"12/05/2018","22:29","218CR0031224","DISTURBANCE","DISTURBANCE","3400 HILL APT 405","",""
"12/05/2018","22:58","218CR0031225","THEFT","THEFT, SHOPLIFT","1000 GRIZZLY TRAIL TOWN PUMP","",""
"12/05/2018","23:21","218CR0031226","UNWANTED PERSON","UNWANTED PERSON","************","",""
"12/05/2018","23:50","218CR0031227","ALARM - BURGLARY","ALARM - BURGLARY","************","",""
"12/06/2018","00:08","218CR0031228","FIREWORKS COMPLAINT","FIREWORKS COMPLAINT","1600 BLK GRAND","",""
"12/06/2018","01:15","218CR0031230","DISTURBANCE","DISTURBANCE","1000 BLK NEVADA W ALLEY","",""
"12/06/2018","01:15","218CR0031229","ALARM - MEDICAL","ALARM - MEDICAL","************","",""
"12/06/2018","01:37","218CR0031231","PROWLER","PROWLER","106 COTTAGE LOOP","",""
"12/06/2018","02:33","218CR0031233","SUSPICIOUS ACTIVITY","POSSESSION OF DANGEROUS DRUGS","3555 PAXSON","ARREST(s) MADE",""
"12/06/2018","03:18","218CR0031234","DISTURBANCE","DISTURBANCE","436 S MAIN TRIP // DRAGGSTED","",""
"12/06/2018","04:16","218CR0031235","MEDICAL - EMERGENCY","MEDICAL - EMERGENCY","910 EVANS #H5","",""
"12/06/2018","07:19","218CR0031236","FIRE- GAS ODOR","FIRE- GAS ODOR","3525 S WARREN","",""
"12/06/2018","07:24","218CR0031237","ALARM - BURGLARY","ALARM - BURGLARY","************","",""
 
Saturday the 15th. Affiliate Marketing.
Copyright 2012

©